Weather in Platoshino

Russia / Perm Krai     57°37′58″N   56°31′45″E
temp.,
°C
wind,
m/s
gust,
m/s
humid.,
%
clouds,
%
prec.,
mm/h
press.,
hPa
HPBL,
m
28 february, sun
sun2823:00−17ese51194100 0.9 1009566
02:00−17e41094100 0.3 1008492
05:00−17e51094100 0.4 1008499
08:00−18e4994100 0.1 1008488
11:00−16e4892100 0.4 1009533
14:00−14e4890100 0.3 1009603
17:00−13ene4791100 0.6 1010670
20:00−15ene4894100 0.3 1011486
1 march, mon
mon123:00−16ene3995100 0.4 1013466
02:00−16ene2796100 0.3 1014391
05:00−17ne269797 0.4 1016206
08:00−18ne259791 0.1 1017203
11:00−16ene239185 0.1 1018278
14:00−11ene118495 0.0 1017462
17:00−11wnw008598 0.0 1017445
20:00−16s229699 0.0 101620
2 march, tue
tue223:00−18ssw239892 0.0 101637
02:00−19ssw369843 0.0 1013122
05:00−18s3109667 0.0 1011321
08:00−16s41090100 0.0 1008405
11:00−15s51192100 0.4 1006446
14:00−12s5992100 0.8 1003582
17:00−12s4993100 1.4 1001601
20:00−12s3995100 0.9 1000505
3 march, wed
wed323:00−11s3795100 1.7 999406
02:00−11sse2696100 0.3 998213
05:00−12sse1296100 0.6 99823
08:00−14s119789 0.0 99720
11:00−8wsw139288 0.1 997231
14:00−4wsw3594100 0.4 997449
17:00−3w4794100 1.1 998611
20:00−7w389496 0.3 998273
4 march, thu
thu423:00−8wnw4109493 0.4 1000463
02:00−12w379675 0.0 1001141
05:00−13w369680 0.1 1002148
08:00−12wsw379583 0.1 1002202
11:00−9wsw369184 0.1 1001344
14:00−6sw478486 0.0 1000859
17:00−5ssw488693 0.1 999838
20:00−7s51291100 0.1 996726